This is the latest recevied weather packets stored in our database for station/object CA4LJZ-10. If no packets are shown the sender has not sent any weather packets the latest 10 day(s).
| Time | Temp. | Humidity | Pressure | Rain* | Wind** | Luminosity | Snow |
|---|---|---|---|---|---|---|---|
| 1777709061 | 10° C | 71% | 955.9 hPa | - | - | - | - |
| 1777708160 | 10° C | 72% | 956.1 hPa | - | - | - | - |
| 1777707259 | 10° C | 72% | 956.5 hPa | - | - | - | - |
| 1777706358 | 10° C | 71% | 956.7 hPa | - | - | - | - |
| 1777705457 | 10.56° C | 71% | 957 hPa | - | - | - | - |
| 1777704556 | 10.56° C | 71% | 957.2 hPa | - | - | - | - |
| 1777703655 | 10.56° C | 72% | 957.4 hPa | - | - | - | - |
| 1777702754 | 10.56° C | 72% | 957.6 hPa | - | - | - | - |
| 1777701853 | 11.11° C | 72% | 957.9 hPa | - | - | - | - |
| 1777700953 | 10.56° C | 72% | 958 hPa | - | - | - | - |
| 1777700051 | 10° C | 76% | 958.1 hPa | - | - | - | - |
| 1777699150 | 10.56° C | 75% | 958.1 hPa | - | - | - | - |
| 1777698249 | 11.11° C | 71% | 958.3 hPa | - | - | - | - |
| 1777697349 | 11.11° C | 72% | 958.5 hPa | - | - | - | - |
| 1777696448 | 11.11° C | 72% | 958.6 hPa | - | - | - | - |
| 1777695546 | 12.22° C | 74% | 958.5 hPa | - | - | - | - |
| 1777694672 | 11.11° C | 72% | 958.7 hPa | - | - | - | - |
| 1777693771 | 11.11° C | 72% | 958.9 hPa | - | - | - | - |
| 1777692870 | 11.11° C | 72% | 959.1 hPa | - | - | - | - |
| 1777691969 | 11.67° C | 71% | 959.1 hPa | - | - | - | - |
| 1777691068 | 11.67° C | 74% | 959.2 hPa | - | - | - | - |
| 1777690167 | 11.67° C | 74% | 959.3 hPa | - | - | - | - |
| 1777689266 | 11.11° C | 77% | 959.5 hPa | - | - | - | - |
| 1777688362 | 11.67° C | 75% | 959.5 hPa | - | - | - | - |
| 1777687518 | 12.22° C | 71% | 959.4 hPa | - | - | - | - |
* Rain since midnight (hover to see other rain measurements)
** Current wind speed in m/s (hover to see current wind gust speed)